TimeCST,TemperatureF,Dew PointF,Humidity,Sea Level PressureIn,VisibilityMPH,Wind Direction,Wind SpeedMPH,Gust SpeedMPH,PrecipitationIn,Events,Conditions,WindDirDegrees,DateUTC
12:52 AM,18.0,14.0,84,30.01,5.0,East,3.5,-,N/A,,Clear,100,2013-02-24 06:52:00
1:52 AM,10.0,8.1,92,30.03,3.0,Calm,Calm,-,N/A,,Clear,0,2013-02-24 07:52:00
2:52 AM,10.9,6.1,81,30.01,3.0,Calm,Calm,-,N/A,,Haze,0,2013-02-24 08:52:00
3:12 AM,10.4,6.8,85,29.97,2.5,Calm,Calm,-,N/A,,Clear,0,2013-02-24 09:12:00
3:24 AM,8.6,6.8,92,29.97,1.5,Calm,Calm,-,N/A,,Clear,0,2013-02-24 09:24:00
3:33 AM,10.4,6.8,85,29.97,3.0,Calm,Calm,-,N/A,,Clear,0,2013-02-24 09:33:00
3:52 AM,9.0,7.0,92,30.00,4.0,Calm,Calm,-,N/A,,Clear,0,2013-02-24 09:52:00
4:07 AM,10.4,6.8,85,29.97,2.5,Calm,Calm,-,N/A,,Clear,0,2013-02-24 10:07:00
4:22 AM,10.4,6.8,85,29.97,4.0,Calm,Calm,-,N/A,,Clear,0,2013-02-24 10:22:00
4:52 AM,10.0,6.1,84,30.01,3.0,Calm,Calm,-,N/A,,Clear,0,2013-02-24 10:52:00
5:02 AM,6.8,3.2,85,29.97,2.0,Calm,Calm,-,N/A,,Clear,0,2013-02-24 11:02:00
5:17 AM,8.6,5.0,85,29.98,4.0,Calm,Calm,-,N/A,,Clear,0,2013-02-24 11:17:00
5:43 AM,8.6,5.0,85,29.98,3.0,Calm,Calm,-,N/A,,Scattered Clouds,0,2013-02-24 11:43:00
5:52 AM,9.0,5.0,84,30.02,2.5,Calm,Calm,-,N/A,,Mostly Cloudy,0,2013-02-24 11:52:00
5:58 AM,8.6,3.2,79,29.98,0.8,Calm,Calm,-,N/A,,Haze,0,2013-02-24 11:58:00
6:00 AM,8.6,5.0,85,29.98,0.2,Calm,Calm,-,N/A,Fog,Light Freezing Fog,0,2013-02-24 12:00:00
6:25 AM,8.6,5.0,85,29.98,0.2,Calm,Calm,-,N/A,Fog,Light Freezing Fog,0,2013-02-24 12:25:00
6:37 AM,8.6,6.8,92,29.98,0.8,Calm,Calm,-,N/A,,Clear,0,2013-02-24 12:37:00
6:41 AM,10.4,6.8,85,29.98,2.0,Calm,Calm,-,N/A,,Clear,0,2013-02-24 12:41:00
6:52 AM,7.0,3.0,84,30.03,3.0,Calm,Calm,-,N/A,,Clear,0,2013-02-24 12:52:00
7:06 AM,8.6,3.2,79,29.98,2.0,Calm,Calm,-,N/A,,Clear,0,2013-02-24 13:06:00
7:30 AM,10.4,6.8,85,29.99,1.8,Calm,Calm,-,N/A,,Partly Cloudy,0,2013-02-24 13:30:00
7:39 AM,10.4,6.8,85,29.99,0.5,Calm,Calm,-,N/A,Fog,Light Freezing Fog,0,2013-02-24 13:39:00
7:52 AM,10.0,6.1,84,30.04,1.0,Calm,Calm,-,N/A,,Clear,0,2013-02-24 13:52:00
8:30 AM,14.0,12.2,93,30.01,2.0,Calm,Calm,-,N/A,,Clear,0,2013-02-24 14:30:00
8:52 AM,16.0,15.1,96,30.05,2.0,Calm,Calm,-,N/A,,Clear,0,2013-02-24 14:52:00
9:32 AM,19.4,17.6,93,30.02,3.0,ESE,3.5,-,N/A,,Clear,110,2013-02-24 15:32:00
9:52 AM,25.0,19.0,78,30.04,3.0,ESE,3.5,-,N/A,,Haze,110,2013-02-24 15:52:00
10:52 AM,32.0,23.0,69,30.05,5.0,Calm,Calm,-,N/A,,Haze,0,2013-02-24 16:52:00
11:52 AM,37.0,24.1,59,30.05,6.0,Calm,Calm,-,N/A,,Haze,0,2013-02-24 17:52:00
12:52 PM,42.1,24.1,49,30.00,8.0,Calm,Calm,-,N/A,,Clear,0,2013-02-24 18:52:00
1:52 PM,43.0,26.1,51,29.96,8.0,East,10.4,-,N/A,,Clear,100,2013-02-24 19:52:00
2:52 PM,44.1,26.1,49,29.94,8.0,East,11.5,-,N/A,,Clear,100,2013-02-24 20:52:00
3:52 PM,44.1,27.0,51,29.93,8.0,East,15.0,-,N/A,,Clear,100,2013-02-24 21:52:00
4:52 PM,45.0,27.0,49,29.92,8.0,East,10.4,-,N/A,,Clear,80,2013-02-24 22:52:00
5:52 PM,41.0,27.0,57,29.95,6.0,East,8.1,-,N/A,,Haze,80,2013-02-24 23:52:00
6:52 PM,39.0,26.1,60,29.97,8.0,ENE,11.5,-,N/A,,Mostly Cloudy,70,2013-02-25 00:52:00
7:52 PM,37.9,26.1,62,29.98,8.0,ENE,6.9,-,N/A,,Overcast,60,2013-02-25 01:52:00
8:52 PM,37.9,25.0,60,29.99,9.0,East,4.6,-,N/A,,Overcast,80,2013-02-25 02:52:00
9:52 PM,37.0,25.0,62,30.01,9.0,ENE,6.9,-,N/A,,Overcast,60,2013-02-25 03:52:00
10:52 PM,37.0,25.0,62,29.99,10.0,ENE,15.0,-,N/A,,Overcast,60,2013-02-25 04:52:00
11:52 PM,36.0,25.0,64,29.98,10.0,East,8.1,-,N/A,,Overcast,80,2013-02-25 05:52:00